Regional Weather Roundup
Issued by NWS

Home | Current Version | Previous Version | Graphics & Text | Print | Product List | Glossary On
Versions: 1 2 3 4 5 6 7 8 9 10 11 12 13 14 15 16 17 18 19 20 21 22 23 24 25 26 27
000
ASUS45 KTFX 201310
RWRMT
MONTANA REGIONAL WEATHER ROUNDUP
NATIONAL WEATHER SERVICE GREAT FALLS MT
700 AM MDT FRI APR 20 2018

NOTE: "FAIR" INDICATES FEW OR NO CLOUDS BELOW 12000 FEET WITH NO
SIGNIFICANT WEATHER AND/OR OBSTRUCTIONS TO VISIBILITY.

MTZ001>007-043-201400-
WEST OF THE DIVIDE

CITY           SKY/WX    TMP DP  RH WIND       PRES   REMARKS
KALISPELL      FAIR      25  22  88 CALM      30.17R
MISSOULA       FAIR      30  24  78 CALM      30.20R
BUTTE          FAIR      26  21  81 E3        30.16R
MULLAN PASS    FAIR      31  24  75 NW5       30.16R
ANACONDA         N/A     32  19  59 SW3       30.17R
DEER LODGE       N/A     27  21  80 W3        30.19R
HAMILTON         N/A     30  25  80 MISG        N/A
PLAINS           N/A     27  21  77 CALM      30.20R
RONAN            N/A     32  28  86 SE5       30.18S
$$

MTZ008-052>055-201400-
SOUTHWEST MONTANA

CITY           SKY/WX    TMP DP  RH WIND       PRES   REMARKS
BOZEMAN        FAIR      30  25  81 SE7       30.13R WCI  23
DILLON         FAIR      32  24  72 S9        30.11R WCI  24
ENNIS          CLEAR     32  23  69 CALM      30.14R
W YELLOWSTONE  FAIR      23  21  93 CALM      30.07R
THREE FORKS      N/A     29  27  92 CALM      30.10R
TWIN BRIDGES     N/A     31  21  66 N3        30.08
$$

MTZ009-010-012-014-046-048-049-054-201400-
EAST SLOPES AND CENTRAL MONTANA

CITY           SKY/WX    TMP DP  RH WIND       PRES   REMARKS
CUT BANK       FAIR      30  23  75 NW7       30.09R WCI  23
GREAT FALLS    FAIR      30  27  88 SW7       30.12R WCI  23
HELENA         FAIR      36  28  73 CALM      30.13R
AUGUSTA        FAIR      35  23  61 NW8       30.11R WCI  28
BOWMANS CRNR   FAIR      30  24  77 SW7       30.11R WCI  24
CHOTEAU          N/A     34  23  64 S6        30.12R WCI  29
CONRAD           N/A     30  27  89 CALM      30.10
FAIRFIELD      FAIR      35  23  61 CALM      30.10R
POWER          FAIR      29  26  88 S6        30.10R WCI  23
RAYNESFORD     FAIR      31  27  83 CALM      30.13R
ULM            FAIR      33  28  80 SE5       30.12R
WHITE SULPHUR    N/A     23  23 100 CALM      30.12R
$$

MTZ011-013-016-021-045-047-050-051-201400-
NORTH CENTRAL MONTANA

CITY           SKY/WX    TMP DP  RH WIND       PRES   REMARKS
HAVRE          FAIR      32  31  96 W6        30.11R WCI  26
LEWISTOWN      FAIR      32  28  85 SE7       30.10S WCI  26
N BAR RANCH    FAIR      36  27  69 CALM      30.12R
CHINOOK          N/A     36  36 100 CALM      30.11R
GEYSER         FAIR      40  29  64 SW14      30.10R
GRASS RANGE    FAIR      35  31  83 CALM      30.06R
STANFORD       FAIR      39  28  64 W9        30.10R
$$

MTZ017>020-022>027-061-062-201400-
NORTHEAST MONTANA

CITY           SKY/WX    TMP DP  RH WIND       PRES   REMARKS
GLASGOW        FAIR      39  32  76 E13       30.15R WCI  31
GLENDIVE       FAIR      36  30  79 E10       30.18R WCI  28
JORDAN           N/A     36  31  82 E5        30.12R
MALTA          CLEAR     36  34  93 NE7       30.11R WCI  30
SIDNEY         FAIR      35  30  82 E5        30.22R
WOLF POINT     FAIR      37  33  85 E9        30.19R FOG     WCI  30
PLENTYWOOD       N/A     37  34  87 CALM      30.21R
POPLAR           N/A     36  30  80 NE6       30.20R WCI  31
SCOBEY           N/A     35  26  70 E1        30.16R
$$

MTZ028>42-056>058-201400-
SOUTHCENTRAL AND SOUTHEAST MONTANA

CITY           SKY/WX    TMP DP  RH WIND       PRES   REMARKS
BAKER          FAIR      33  30  88 E13       30.15R WCI  24
BILLINGS       FAIR      37  33  85 NW10      30.09R WCI  30
LIVINGSTON       N/A    N/A N/A N/A MISG      30.12R
MILES CITY     FAIR      37  34  89 NE8       30.11R WCI  31
BIG TIMBER     CLEAR     34  28  80 W12       30.13R WCI  25
EKALAKA          N/A     37  27  68 E16       30.06S WCI  27
FORSYTH          N/A     39  36  87 E5        30.08R
HARLOWTON      FAIR      31  27  86 W14       30.10R WCI  20
LAUREL           N/A     39  34  81 NW12      30.10S WCI  32
$$

REGIONAL REPORTS...DAKOTAS

CITY           SKY/WX    TMP DP  RH WIND       PRES   REMARKS
WILLISTON      FAIR      36  31  82 E7        30.23S WCI  30
MINOT          FAIR      34  30  85 CALM      30.30R
DICKINSON      FAIR      33  28  81 S12       30.20R WCI  24
BEACH          FAIR      34  30  86 SE13      30.20R WCI  25
CROSBY         FAIR      34  34 100 E5        30.26R
TIOGA          FAIR      30  30 100 E7        30.27R WCI  23
WATFORD CITY   FAIR      34  32  93 SE3       30.23R
BISMARCK       FAIR      32  25  75 NE7       30.33R WCI  26
GRAND FORKS    FAIR      35  32  88 SE5       30.40R
FARGO          FAIR      37  32  82 S7        30.42S WCI  32
BUFFALO SD       N/A     36  28  73 E9        30.09S WCI  29
RAPID CITY     FAIR      39  29  67 SE10      30.14S
$$

REGIONAL REPORTS...WYOMING/IDAHO/WASHINGTON

CITY           SKY/WX    TMP DP  RH WIND       PRES   REMARKS
GILLETTE       FAIR      40  27  59 SE13      30.06R
SHERIDAN       FAIR      41  34  76 CALM      30.04R
BUFFALO WY     FAIR      39  28  64 S8        30.05R
CODY           FAIR      37  30  75 NE9       30.05R WCI  30
YELLOWSTONE LA   N/A     31  16  54 CALM      30.09R
IDAHO FALLS    FAIR      41  26  55 N15       29.99R
SALMON         FAIR      33  25  72 SE3       30.15R
BOISE          FAIR      42  30  62 W6        30.07R
SPOKANE        FAIR      40  32  73 SE8       30.17R
$$

REGIONAL REPORTS...ALBERTA

CITY           SKY/WX    TMP DP  RH WIND       PRES   REMARKS
CALGARY        MOCLDY    32  21  64 NE5       30.04S
EDMONTON       CLEAR     37  21  52 W8        30.00R WCI  31
FORT MCMURRAY  CLEAR     41  28  60 SW9       29.91R
HIGH LEVEL     PTCLDY    34  27  75 SE5       29.72R
LETHBRIDGE     MOCLDY    36  27  69 SW9       30.06R WCI  29
LLOYDMINSTER   MOCLDY    36  32  87 S12G18    29.98F WCI  27
MEDICINE HAT   MOCLDY    41  34  75 SW13G18   30.06R
MILK RIVER       N/A     34  28  80 NW1         N/A
ONEFOUR          N/A     34  32  93 E13         N/A  WCI  25
PEACE RIVER    MOCLDY    34  25  69 VRB2      29.90R
PINCHER CREEK  CLOUDY    41  25  52 W12       30.07R
WATERTON GATE    N/A     43  19  39 SW15        N/A
$$

REGIONAL REPORTS...SASKATCHEWAN

CITY           SKY/WX    TMP DP  RH WIND       PRES   REMARKS
CYPRESS HILLS    N/A     34  28  80 S3          N/A
ESTEVAN        PTSUNNY   32  30  93 E10       30.26S FOG     WCI  24
MOOSE JAW        N/A     32  28  86 SE7         N/A  WCI  26
PRINCE ALBERT  PTCLDY    34  28  80 SE3       30.19F
REGINA         PTCLDY    34  30  86 SE16      30.22S WCI  23
ROCKGLEN         N/A     34  30  86 S9          N/A  WCI  26
SASKATOON      PTCLDY    36  28  75 SE9       30.15F WCI  29
SWIFT CURRENT  CLEAR     37  30  75 S17G23    30.08S WCI  28
VAL MARIE        N/A     34  30  86 N1          N/A
$$




USA.gov is the U.S. government's official web portal to all federal, state and local government web resources and services.